{"data":{"norad_id":49081,"epoch":"2026-05-25T01:53:17.695392Z","epoch_age_seconds":78621,"freshness":"FRESH","line1":"1 49081U 21075G   26145.07867703  .00000057  00000+0  11284-3 0  9993","line2":"2 49081  87.9162  10.4568 0001803  96.6708 263.4629 13.17652070230569","mean_motion":13.1765207,"eccentricity":0.0001803,"inclination_deg":87.9162,"raan_deg":10.4568,"arg_perigee_deg":96.6708,"mean_anomaly_deg":263.4629,"bstar":0.00011284,"rev_number":23056,"period_min":109.28529866006,"perigee_km":1192.3362962658,"apogee_km":1195.0667012285,"semimajor_km":7571.8384987472,"source":"CELESTRAK","updated_at":"2026-05-25T13:38:22.481790Z"}}